Vertical_Velocity
-2 4 -1 1 1 1 2 -3 -3 -2 -2 1 -2 -2 -1 -2 -3 -2 -3 1 -2 -1 -5 4 -4 6 -4
-0 -4 -5 -2 -2 -3 -2 -1 -0 -2 -2 -2 -4 -1 1 -1 -4 -3 -2 0 -0 -4 -5 -6 -3 -2 1
-5 -3 -1 -5 -3 -0 -2 -4 -6 -6 1 -2 -1 -2 -4 -0 0 -4 -6 -4 -1 1 -0 -2 -3 -5 -5
-4 -1 4 -4 -1 -4 -7 -2 -5 -2 2 0 -0 -2 -0 2 -2 -1 -0 -1 -3 -3 -2 -2 -2 -0 -1
-0 2 -2 -5 -1 -3 -2 2 -6 -7 -4 -10 -2 -4 -2 -1 0 1 -1 -2 -2 3 3 0 3 3 1
-0 2 -2 -0 -2 0 2 -3 -15 -11 2 -10 3 -5 -2 -4 -5 -8 -4 2 5 4 1 1 2 -1 -2
1 -4 -4 1 2 -2 1 2 -3 -13 6 -15 12 -8 -2 -9 -4 -2 0 -2 2 5 -1 -3 3 3 1
-2 -2 1 -1 1 -0 -0 -3 -5 -7 7 -17 6 -5 1 -1 -1 -4 -3 -1 -3 -2 -1 4 5 1 -1
2 2 2 3 5 -2 -0 -1 -3 -9 6 -2 -1 -0 -10 -6 -6 -6 -3 -4 -2 3 3 0 -2 -3 2
2 2 0 -1 1 3 2 -2 4 -15 9 -1 -13 4 -12 -9 -4 -0 -0 2 -1 -0 1 2 1 0 -2
-4 -4 -1 -1 -1 1 2 3 2 -4 14 14 -8 0 4 -11 -10 -2 0 -4 -0 -2 1 0 0 3 -5
-2 -1 -3 -1 -1 -1 -0 3 6 -1 -3 10 -8 6 5 -5 -12 0 -1 -0 1 -3 -0 1 1 2 3
-2 -1 -1 -1 -2 -2 3 -4 1 3 6 8 3 1 4 -2 -6 -13 -4 -8 4 1 3 -2 -2 2 -9
-0 0 -0 -1 -1 -1 -5 -5 -8 0 6 2 3 3 -2 1 3 -13 8 -2 -1 6 1 -2 -0 1 -2
0 -1 -1 -1 -0 -0 2 -1 -3 -9 -10 6 6 3 3 0 -10 14 -10 -3 6 -5 -1 -3 3 -1 1
0 -1 -2 -2 -4 1 0 3 -1 -0 -3 -2 -8 -7 1 -1 -5 -11 1 -4 1 2 -0 -6 -10 3 -3
-1 0 -0 -2 -3 -2 -1 0 -2 -1 -1 -5 -5 6 -2 -3 5 -1 -1 3 -4 -3 3 6 -1 -5 6
Height
1500 1501 1497 1496 1494 1490 1486 1482 1478 1474 1470 1465 1461 1459 1458 1456 1454 1453 1451 1449 1447 1446 1445 1443 1442 1441 1440
1490 1490 1489 1489 1485 1481 1478 1474 1470 1466 1462 1457 1455 1452 1450 1447 1446 1444 1442 1440 1439 1437 1435 1433 1431 1430 1429
1483 1483 1479 1478 1477 1473 1469 1465 1462 1458 1454 1451 1448 1446 1443 1440 1438 1436 1433 1431 1428 1425 1423 1421 1420 1419 1419
1479 1477 1473 1471 1470 1465 1461 1459 1454 1451 1448 1444 1442 1439 1436 1432 1429 1426 1422 1419 1416 1413 1411 1410 1409 1408 1407
1474 1471 1466 1465 1464 1461 1456 1452 1447 1443 1438 1436 1434 1431 1427 1423 1419 1415 1412 1409 1405 1403 1402 1401 1399 1398 1397
1468 1463 1462 1461 1458 1456 1451 1446 1439 1437 1431 1428 1426 1421 1419 1415 1411 1407 1403 1399 1395 1394 1392 1390 1389 1387 1387
1461 1461 1458 1457 1453 1448 1445 1442 1437 1431 1427 1420 1419 1411 1409 1404 1401 1397 1392 1389 1387 1384 1382 1381 1379 1377 1377
1457 1456 1453 1450 1448 1444 1440 1435 1431 1427 1423 1413 1410 1403 1399 1394 1391 1388 1385 1382 1378 1376 1374 1372 1369 1367 1366
1453 1451 1448 1445 1443 1438 1435 1430 1423 1420 1417 1410 1403 1394 1389 1383 1381 1378 1375 1373 1370 1366 1363 1360 1358 1356 1353
1448 1446 1443 1441 1438 1435 1430 1425 1421 1413 1411 1404 1398 1391 1379 1375 1372 1369 1366 1363 1359 1355 1352 1349 1347 1344 1341
1442 1441 1439 1437 1434 1431 1427 1422 1416 1411 1407 1400 1391 1388 1383 1369 1362 1360 1357 1352 1347 1344 1341 1338 1336 1333 1330
1439 1436 1434 1432 1430 1427 1423 1418 1411 1405 1400 1396 1386 1382 1375 1367 1357 1351 1349 1344 1339 1334 1332 1329 1327 1325 1322
1434 1432 1429 1427 1424 1420 1416 1410 1403 1398 1392 1387 1380 1375 1370 1362 1353 1344 1338 1334 1332 1328 1323 1320 1317 1315 1311
1430 1427 1425 1422 1419 1414 1408 1402 1394 1389 1386 1380 1374 1368 1362 1356 1349 1338 1335 1329 1324 1320 1314 1309 1306 1304 1300
1427 1423 1421 1417 1413 1408 1403 1396 1389 1382 1376 1373 1368 1362 1355 1349 1339 1334 1327 1320 1317 1311 1306 1298 1295 1293 1290
1423 1420 1416 1412 1407 1402 1397 1391 1384 1379 1372 1366 1359 1351 1345 1341 1336 1324 1319 1313 1307 1302 1298 1291 1283 1283 1281
1419 1416 1412 1408 1402 1397 1391 1385 1379 1373 1366 1361 1354 1349 1339 1329 1329 1325 1316 1309 1302 1296 1292 1286 1279 1273 1272